Terminal Aerodrome Forecast
Issued by NWS Aberdeen, SD

Home | Current Version | Previous Version | Text Only | Print | Product List | Glossary On
Versions: 1 2 3 4 5 6 7 8 9 10 11 12 13 14 15 16 17 18 19 20 21 22 23 24 25 26 27 28 29 30 31 32 33 34 35 36 37 38 39 40 41 42 43 44 45
000
FTUS43 KABR 280649 AAC
TAFABR
TAF AMD
KABR 280649Z 2807/0106 03015KT 3SM -SN OVC015
      TEMPO 2807/2809 2SM -SN OVC009
     FM280900 02011KT P6SM OVC030
     FM281400 02011KT P6SM OVC060
     FM010000 01009KT P6SM BKN025=

USA.gov is the U.S. government's official web portal to all federal, state and local government web resources and services.